[[{"header":{"parameterUnit":"m.s-1","parameterCategory":1,"la1":30.2991,"la2":30.254,"lo1":-89.0895,"lo2":-89.0444,"dy":0.0017,"dx":0.0017,"nx":28,"ny":28,"refTime":"2026-01-07T03:00:00:Z","depth":0,"parameterNumber":2,"parameterNumberName":"U-component_of_WINDS"},"data":[0,0,0,0,0,0,0,0,0,0,0,0,0,0,0,0,0,0,0,0,0,0,0,0,0,0,0,0,0,0,0,0,0,0,0,0,0,0,0,0,0,0,0,0,0,0,0,0,0,0,0,0,0,0,0,0,0,0,-1.7808,-1.7809,0,-1.7898,-1.7899,-1.7901,-1.7951,-1.7951,-1.7951,-1.7951,-1.8046,-1.8048,-1.805,0,0,0,0,0,0,0,0,0,0,0,0,0,-1.7681,-1.7683,-1.7808,-1.7809,-1.781,-1.7898,-1.79,-1.7901,-1.7951,-1.7951,-1.7951,-1.7951,-1.8045,-1.8048,-1.8051,0,0,0,0,0,0,0,0,0,0,0,0,0,-1.775,-1.7684,-1.7808,-1.7846,-1.785,-1.7898,-1.79,-1.7901,-1.7951,-1.7951,-1.7951,-1.7951,-1.8044,-1.8047,-1.8051,-1.8069,0,0,-1.8062,-1.8063,0,0,0,0,0,0,0,0,-1.7746,-1.7755,-1.7839,-1.7843,-1.7848,-1.7913,-1.789,-1.7957,-1.7951,-1.7912,-1.7951,-1.7951,-1.8002,-1.8009,-1.8025,-1.8073,-1.8077,-1.8062,-1.8064,-1.8066,-1.8067,0,0,0,0,0,0,0,-1.7741,-1.7751,-1.7844,-1.784,-1.7846,-1.7859,-1.7869,-1.7903,-1.7955,-1.7916,-1.792,-1.793,-1.8004,-1.8022,-1.8028,-1.8079,-1.8062,-1.8065,-1.8068,-1.8069,-1.8148,-1.8148,0,0,0,0,0,0,-1.773,-1.7747,-1.7841,-1.7847,-1.7797,-1.7861,-1.7872,-1.7892,-1.7955,-1.7964,-1.7929,-1.7932,-1.8015,-1.8024,-1.8031,-1.8057,-1.8066,-1.8069,-1.8071,-1.8148,-1.8148,-1.8148,0,0,0,0,0,0,-1.7727,-1.7738,-1.7837,-1.7798,-1.7811,-1.7863,-1.7885,-1.7894,-1.7912,-1.7965,-1.7975,-1.7937,-1.8016,-1.8026,-1.8059,-1.8061,-1.8071,-1.8074,-1.8148,-1.8148,-1.8148,-1.8108,0,0,0,0,0,0,-1.7723,-1.7737,-1.7743,-1.7798,-1.7813,-1.7863,-1.7885,-1.7896,-1.7917,-1.7921,-1.7975,-1.7984,-1.8017,-1.8054,-1.8063,-1.8066,-1.8077,-1.8148,-1.8148,-1.8148,-1.811,-1.8107,-1.8105,0,0,0,0,0,-1.7719,-1.7729,-1.7743,-1.7755,-1.7823,-1.7863,-1.7872,-1.7909,-1.7917,-1.7925,-1.7959,-1.7982,-1.8059,-1.8057,-1.8067,-1.8072,-1.8148,-1.8148,-1.8148,-1.8111,-1.8108,-1.8105,0,0,0,0,0,0,-1.7675,-1.7737,-1.7754,-1.7782,-1.7816,-1.7871,-1.7882,-1.7904,-1.7938,-1.794,-1.7985,-1.7997,-1.8026,-1.8052,-1.8048,-1.8093,-1.8106,-1.8108,-1.8075,-1.8072,-1.8069,-1.8063,-1.808,0,0,0,0,0,-1.7668,-1.7694,-1.7748,-1.7768,-1.7784,-1.783,-1.7849,-1.7874,-1.7912,-1.7928,-1.7964,-1.8001,-1.8034,-1.8054,-1.8087,-1.8114,-1.8127,-1.8123,-1.812,-1.8118,-1.8119,-1.8136,-1.8135,-1.8147,-1.8147,-1.8147,0,0,-1.7655,-1.7692,-1.7706,-1.776,-1.779,-1.7817,-1.7842,-1.787,-1.7891,-1.7932,-1.7965,-1.7994,-1.8038,-1.8068,-1.8083,-1.8091,-1.8118,-1.8117,-1.8115,-1.8118,-1.8136,-1.8135,-1.8133,-1.8147,-1.8147,-1.8147,0,0,-1.7645,-1.7675,-1.7696,-1.7725,-1.777,-1.78,-1.7805,-1.7857,-1.7877,-1.7911,-1.7943,-1.7969,-1.8024,-1.8054,-1.8077,-1.8079,-1.8102,-1.8089,-1.8075,-1.8091,-1.809,-1.809,-1.8091,-1.8091,-1.809,-1.809,-1.809,0,-1.7623,-1.7665,-1.7703,-1.7729,-1.7752,-1.779,-1.7811,-1.7838,-1.7892,-1.7907,-1.7915,-1.7986,-1.8018,-1.8056,-1.8057,-1.8074,-1.8081,-1.8083,-1.8087,-1.8087,-1.8087,-1.8089,-1.8089,-1.8088,-1.8088,-1.8088,-1.8088,0,-1.7636,-1.7665,-1.7676,-1.7726,-1.775,-1.7773,-1.7816,-1.7836,-1.786,-1.7889,-1.7924,-1.7965,-1.8007,-1.8018,-1.8041,-1.806,-1.8063,-1.8078,-1.8093,-1.8083,-1.8086,-1.8087,-1.8085,-1.8086,-1.8086,-1.8087,0,0,-1.7601,-1.7672,-1.7675,-1.7699,-1.7751,-1.7775,-1.78,-1.7841,-1.7857,-1.7893,-1.7917,-1.7963,-1.7977,-1.8003,-1.803,-1.8044,-1.8045,-1.8059,-1.806,-1.8055,-1.8069,-1.8057,-1.8057,-1.806,-1.806,-1.8061,-1.8065,0,-1.7599,-1.7646,-1.7681,-1.7715,-1.7742,-1.7779,-1.7801,-1.7837,-1.7865,-1.7894,-1.7926,-1.7958,-1.7975,-1.7991,-1.8006,-1.8041,-1.8048,-1.8041,-1.8083,-1.8084,-1.8071,-1.8058,-1.8046,-1.8048,-1.8066,-1.8067,-1.8067,0,-1.7603,-1.7636,-1.7672,-1.7723,-1.7735,-1.7755,-1.7795,-1.7821,-1.7863,-1.7883,-1.7911,-1.794,-1.797,-1.7981,-1.8023,-1.8018,-1.8037,-1.8057,-1.8058,-1.8064,-1.8075,-1.8064,-1.8049,-1.805,-1.8069,-1.8068,-1.8068,0,-1.7574,-1.7629,-1.7657,-1.7676,-1.7735,-1.7748,-1.7774,-1.7815,-1.7837,-1.7873,-1.7888,-1.7927,-1.7948,-1.7979,-1.8017,-1.8021,-1.8056,-1.807,-1.8075,-1.8074,-1.808,-1.8079,-1.8069,-1.8092,-1.8092,-1.8092,-1.8092,0,-1.7568,-1.7589,-1.7645,-1.7663,-1.7688,-1.7729,-1.7752,-1.7781,-1.7818,-1.7843,-1.7877,-1.79,-1.7949,-1.7979,-1.8009,-1.804,-1.805,-1.8067,-1.8075,-1.8065,-1.8062,-1.8078,-1.8079,-1.8092,-1.8092,-1.8092,-1.8092,0,-1.754,-1.7578,-1.7612,-1.7665,-1.7679,-1.7695,-1.7741,-1.7761,-1.7791,-1.7822,-1.7832,-1.7881,-1.7917,-1.7958,-1.8008,-1.8029,-1.8058,-1.8069,-1.8044,-1.8048,-1.8051,-1.805,-1.8051,-1.8053,-1.8073,-1.8073,-1.8073,0,-1.7534,-1.7551,-1.7605,-1.7624,-1.7648,-1.7678,-1.77,-1.7742,-1.7765,-1.7813,-1.7827,-1.7865,-1.7899,-1.7955,-1.7996,-1.8035,-1.8048,-1.8045,-1.8054,-1.8042,-1.8048,-1.8047,-1.8049,-1.8042,-1.8042,-1.8042,-1.8041,0,-1.7519,-1.7537,-1.7568,-1.7606,-1.7632,-1.7664,-1.7698,-1.7711,-1.776,-1.7784,-1.7821,-1.7846,-1.7898,-1.7936,-1.798,-1.8008,-1.8033,-1.8038,-1.8042,-1.8031,-1.8016,-1.8025,-1.8038,-1.8038,-1.8039,-1.8039,-1.8039,-1.8039,-1.7502,-1.7519,-1.756,-1.7594,-1.7623,-1.7654,-1.7675,-1.7708,-1.7739,-1.7783,-1.7806,-1.7843,-1.7885,-1.7947,-1.7974,-1.8004,-1.8013,-1.8017,-1.8018,-1.8019,-1.8016,-1.801,-1.8012,-1.8012,-1.8013,-1.8013,-1.8013,0,-1.749,-1.7518,-1.7548,-1.7594,-1.7621,-1.7641,-1.768,-1.7701,-1.7732,-1.7769,-1.7801,-1.7844,-1.7882,-1.7925,-1.7966,-1.7982,-1.7995,-1.7992,-1.7991,-1.7997,-1.8006,-1.7999,-1.7981,-1.7981,-1.7981,-1.7981,-1.7981,-1.7981,-1.7486,-1.7516,-1.7539,-1.7584,-1.7613,-1.7648,-1.7668,-1.7698,-1.7727,-1.7773,-1.7804,-1.7832,-1.7872,-1.7916,-1.7952,-1.7964,-1.7978,-1.7971,-1.7987,-1.7994,-1.7996,-1.7999,-1.7993,-1.7974,-1.7974,-1.7976,-1.7976,-1.7976]},{"header":{"parameterUnit":"m.s-1","parameterCategory":1,"la1":30.2991,"la2":30.254,"lo1":-89.0895,"lo2":-89.0444,"dy":0.0017,"dx":0.0017,"nx":28,"ny":28,"refTime":"2026-01-07T03:00:00:Z","depth":0,"parameterNumber":3,"parameterNumberName":"V-component_of_WINDS"},"data":[0,0,0,0,0,0,0,0,0,0,0,0,0,0,0,0,0,0,0,0,0,0,0,0,0,0,0,0,0,0,0,0,0,0,0,0,0,0,0,0,0,0,0,0,0,0,0,0,0,0,0,0,0,0,0,0,0,0,4.375,4.3751,0,4.3888,4.389,4.3892,4.3927,4.3926,4.3925,4.3924,4.4066,4.407,4.4075,0,0,0,0,0,0,0,0,0,0,0,0,0,4.3517,4.3521,4.375,4.3751,4.3753,4.3888,4.389,4.3892,4.3927,4.3926,4.3925,4.3924,4.4064,4.407,4.4075,0,0,0,0,0,0,0,0,0,0,0,0,0,4.3633,4.3523,4.3749,4.3787,4.3792,4.3888,4.389,4.3893,4.3927,4.3926,4.3925,4.3923,4.4063,4.4069,4.4076,4.4145,0,0,4.4097,4.41,0,0,0,0,0,0,0,0,4.3627,4.3642,4.378,4.3784,4.379,4.3889,4.386,4.3977,4.3928,4.3876,4.3924,4.3923,4.4008,4.4019,4.4048,4.4151,4.4158,4.4098,4.4102,4.4105,4.4107,0,0,0,0,0,0,0,4.3619,4.3636,4.3805,4.3782,4.3788,4.3798,4.3813,4.3883,4.3948,4.388,4.3883,4.3899,4.4011,4.4042,4.4052,4.416,4.4098,4.4104,4.4108,4.4111,4.433,4.4332,0,0,0,0,0,0,4.3604,4.3629,4.38,4.3809,4.3703,4.3803,4.382,4.3859,4.3947,4.3959,4.39,4.39,4.403,4.4044,4.4057,4.4146,4.4105,4.4111,4.4115,4.4329,4.4331,4.4333,0,0,0,0,0,0,4.3599,4.3619,4.3795,4.372,4.3743,4.3808,4.3852,4.3862,4.3893,4.3962,4.3974,4.3919,4.403,4.4047,4.4124,4.4151,4.4114,4.4121,4.4327,4.4329,4.4332,4.4322,0,0,0,0,0,0,4.3592,4.3617,4.3643,4.372,4.3747,4.3858,4.3853,4.3866,4.3905,4.3906,4.3983,4.3995,4.403,4.4113,4.4131,4.416,4.4126,4.4324,4.4328,4.4331,4.432,4.4324,4.4327,0,0,0,0,0,4.3584,4.3634,4.3644,4.3664,4.3781,4.3859,4.3875,4.3915,4.3907,4.3934,4.3979,4.3992,4.4145,4.4121,4.4141,4.4172,4.4323,4.4327,4.4331,4.4319,4.4323,4.4327,0,0,0,0,0,0,4.3557,4.3644,4.3657,4.3733,4.3789,4.3865,4.3901,4.3918,4.3977,4.3975,4.4023,4.404,4.4114,4.4151,4.4122,4.4246,4.4234,4.4242,4.4219,4.4224,4.4227,4.4217,4.4132,0,0,0,0,0,4.356,4.3616,4.369,4.375,4.3778,4.3835,4.387,4.3897,4.3956,4.398,4.403,4.4087,4.4149,4.4188,4.4248,4.4326,4.4345,4.4358,4.4362,4.4364,4.4371,4.4418,4.4425,4.4345,4.4345,4.4345,0,0,4.3566,4.3621,4.3654,4.3746,4.3793,4.3851,4.3854,4.3915,4.3959,4.3989,4.4065,4.4104,4.4171,4.425,4.4287,4.4283,4.4397,4.4369,4.437,4.4376,4.4422,4.443,4.4437,4.4348,4.4347,4.4347,0,0,4.3609,4.3655,4.3712,4.3759,4.383,4.3868,4.3881,4.3957,4.3984,4.4061,4.4086,4.414,4.4243,4.4292,4.4329,4.4394,4.441,4.4412,4.4431,4.4476,4.4483,4.4488,4.4514,4.4522,4.4419,4.4419,4.4419,0,4.3608,4.3697,4.3739,4.38,4.3841,4.3872,4.3932,4.3975,4.4061,4.409,4.4084,4.4218,4.4265,4.4357,4.4373,4.4402,4.4421,4.4404,4.4478,4.4484,4.4491,4.4515,4.4524,4.4419,4.4419,4.4419,4.4419,0,4.3694,4.3755,4.3793,4.3877,4.3923,4.3982,4.4035,4.4076,4.4099,4.4138,4.4218,4.4277,4.4351,4.4374,4.4396,4.447,4.4466,4.4469,4.4458,4.4498,4.4522,4.4531,4.4419,4.4419,4.4419,4.4419,0,0,4.3721,4.383,4.3844,4.3884,4.3965,4.4014,4.4077,4.415,4.4185,4.4245,4.4299,4.4388,4.4393,4.4436,4.4465,4.4504,4.4555,4.4503,4.4505,4.4512,4.4643,4.4641,4.4651,4.4566,4.4568,4.4569,4.4638,0,4.3775,4.3887,4.3929,4.4021,4.408,4.4112,4.4167,4.4224,4.4263,4.4319,4.4362,4.4426,4.4425,4.4452,4.4493,4.454,4.4582,4.4536,4.4619,4.4621,4.4602,4.4663,4.4661,4.4722,4.4647,4.4649,4.465,0,4.3852,4.3914,4.4013,4.4091,4.4117,4.4165,4.4238,4.4291,4.4357,4.4383,4.4433,4.446,4.4528,4.4514,4.461,4.4577,4.4614,4.4643,4.4646,4.4656,4.4638,4.4676,4.4743,4.4752,4.4665,4.4664,4.4663,0,4.3865,4.3973,4.4047,4.408,4.4172,4.4205,4.4245,4.431,4.4353,4.4416,4.4445,4.4515,4.4554,4.4608,4.4654,4.4639,4.4747,4.4735,4.4771,4.477,4.4793,4.4791,4.4867,4.4814,4.4814,4.4814,4.4814,0,4.3921,4.3981,4.4054,4.41,4.4168,4.4217,4.4284,4.4326,4.4384,4.4439,4.4471,4.4522,4.4579,4.4639,4.4675,4.4751,4.4767,4.4791,4.48,4.4789,4.4786,4.4814,4.4811,4.4816,4.4816,4.4815,4.4815,0,4.3947,4.3998,4.4081,4.4162,4.4184,4.4232,4.4302,4.4348,4.4389,4.4459,4.4479,4.4544,4.4616,4.4667,4.4759,4.4784,4.4866,4.4874,4.4843,4.4848,4.4882,4.4879,4.498,4.4997,4.4931,4.4931,4.4932,0,4.3979,4.4027,4.4114,4.4153,4.4194,4.4257,4.4301,4.4351,4.4396,4.4477,4.4515,4.4589,4.4651,4.4765,4.4821,4.4892,4.4903,4.4934,4.4914,4.4903,4.4906,4.4903,4.491,4.4937,4.4937,4.4938,4.4938,0,4.4033,4.4057,4.412,4.4193,4.4245,4.4304,4.4364,4.4395,4.4456,4.4505,4.458,4.4628,4.4724,4.4798,4.4876,4.4918,4.4939,4.4944,4.4957,4.4946,4.4927,4.494,4.4853,4.4942,4.4941,4.4941,4.4941,4.4941,4.4065,4.411,4.4179,4.4248,4.4299,4.4355,4.4404,4.4452,4.4515,4.4598,4.4624,4.4702,4.477,4.4877,4.492,4.4983,4.4981,4.4999,4.5003,4.5007,4.5008,4.4917,4.4997,4.4997,4.4997,4.4997,4.4997,0,4.4123,4.4169,4.4233,4.4317,4.4372,4.4388,4.4456,4.4501,4.457,4.4632,4.4693,4.478,4.4854,4.4916,4.4993,4.5031,4.5043,4.5049,4.5047,4.5057,4.5004,4.4986,4.5039,4.5039,4.5039,4.5039,4.5039,4.5038,4.4159,4.4236,4.4269,4.4372,4.4419,4.4496,4.4534,4.4587,4.4637,4.4733,4.4794,4.4835,4.4899,4.498,4.5049,4.5066,4.5093,4.5097,4.5117,4.5066,4.5061,4.5056,4.504,4.5103,4.5103,4.5165,4.5166,4.5166]}]]